Falls City, NE

7:43 PM CDT on April 24, 2018 (GMT -0500)
Brenner

Weather History for KFNB - March, 2012

Change the Weather History Date:

Thursday, March 8, 2012

  Actual Average Record
Temperature  
Mean Temperature 40 °F -  
Max Temperature 52 °F 51 °F 80 °F (1977)
Min Temperature 28 °F 26 °F -3 °F (1967)
Degree Days  
Heating Degree Days 25    
Moisture  
Dew Point 16 °F    
Average Humidity 46    
Maximum Humidity 78    
Minimum Humidity 19    
Precipitation  
Precipitation 0.00 in - - ()
Sea Level Pressure  
Sea Level Pressure 30.36 in    
Wind  
Wind Speed 10 mph (NW)    
Max Wind Speed 15 mph    
Max Gust Speed 23 mph    
Visibility 10 miles    
Events      
Averages and records for this station are not official NWS values.
T = Trace of Precipitation, MM = Missing Value Source: NWS Daily Summary

Daily Weather History Graph

Daily Weather History Graph

Search for Another Location

Airport or City:

Astronomy

Mar. 08, 2012 Rise Set
Actual Time 6:44 AM CST 6:22 PM CST
Civil Twilight 6:17 AM CST 6:49 PM CST
Nautical Twilight 5:45 AM CST 7:20 PM CST
Astronomical Twilight 5:14 AM CST 7:52 PM CST
Moon 7:11 PM CST (3/8) 6:28 AM CST (3/8)
Length of Visible Light 12h 32m
Length of Day
11h 38m
Full, 100% of the Moon is Illuminated
Mar 8
Full
Mar 14
Last Quarter
Mar 22
New
Mar 30
First Quarter
Apr 6
Full

Hourly Weather History & Observations

Time (CST) Temp. Windchill Dew Point Humidity Pressure Visibility Wind Dir Wind Speed Gust Speed Precip Events Conditions
12:53 AM 35.1 °F 25.9 °F 25.0 °F 67% 30.10 in 10.0 mi NNW 13.8 mph 21.9 mph N/A   Overcast
1:53 AM 35.1 °F 27.4 °F 25.0 °F 67% 30.16 in 10.0 mi North 10.4 mph - N/A   Scattered Clouds
3:53 AM 32.0 °F 24.8 °F 25.0 °F 75% 30.24 in 10.0 mi NW 8.1 mph - N/A   Clear
4:53 AM 28.9 °F 20.4 °F 21.9 °F 75% 30.24 in 10.0 mi NNW 9.2 mph - N/A   Clear
5:53 AM 28.0 °F 20.0 °F 21.9 °F 78% 30.30 in 10.0 mi NW 8.1 mph - N/A   Clear
6:53 AM 28.0 °F 18.6 °F 21.0 °F 75% 30.32 in 10.0 mi NW 10.4 mph - N/A   Clear
7:53 AM 28.0 °F 18.6 °F 21.0 °F 75% 30.36 in 10.0 mi NW 10.4 mph - N/A   Clear
8:53 AM 33.1 °F 23.4 °F 21.9 °F 64% 30.40 in 10.0 mi NNW 13.8 mph - N/A   Clear
9:53 AM 39.9 °F 32.5 °F 21.0 °F 47% 30.40 in 10.0 mi NNW 12.7 mph - N/A   Clear
10:53 AM 39.9 °F 33.9 °F 19.0 °F 43% 30.41 in 10.0 mi NNW 9.2 mph - N/A   Clear
11:53 AM 46.0 °F 41.0 °F 17.1 °F 31% 30.39 in 10.0 mi North 10.4 mph 18.4 mph N/A   Clear
12:53 PM 48.9 °F - 15.1 °F 26% 30.38 in 10.0 mi NNW 9.2 mph 23.0 mph N/A   Clear
1:53 PM 51.1 °F - 14.0 °F 23% 30.35 in 10.0 mi North 15.0 mph 19.6 mph N/A   Clear
2:53 PM 51.1 °F - 12.9 °F 22% 30.35 in 10.0 mi North 10.4 mph 18.4 mph N/A   Clear
3:53 PM 52.0 °F - 12.0 °F 20% 30.37 in 10.0 mi North 6.9 mph - N/A   Clear
4:53 PM 51.1 °F - 10.0 °F 19% 30.39 in 10.0 mi NNW 5.8 mph - N/A   Clear
5:53 PM 48.9 °F - 9.0 °F 20% 30.40 in 10.0 mi NNW 5.8 mph - N/A   Clear
6:53 PM 42.1 °F 38.4 °F 10.9 °F 28% 30.42 in 10.0 mi WNW 5.8 mph - N/A   Clear
7:53 PM 37.0 °F 32.4 °F 10.0 °F 33% 30.44 in 10.0 mi WNW 5.8 mph - N/A   Clear
8:53 PM 35.1 °F 30.1 °F 10.0 °F 35% 30.46 in 10.0 mi West 5.8 mph - N/A   Clear
9:53 PM 35.1 °F 29.3 °F 10.9 °F 37% 30.46 in 10.0 mi West 6.9 mph - N/A   Clear
10:53 PM 30.9 °F 26.2 °F 12.0 °F 46% 30.47 in 10.0 mi Variable 4.6 mph - N/A   Clear
11:53 PM 30.0 °F 26.5 °F 12.9 °F 49% 30.47 in 10.0 mi SW 3.5 mph - N/A   Clear